Location: Besigheim
(48.9980°N, 9.1427°E)
Time: 16:04:46
(UTC+00:00)

SL-24 R/B - RUBIN 2 - Pass Details

Date: 20 February 2026
Orbit: 603 x 984 km, 64.6° (Epoch: 8 March)

Event Time Altitude Azimuth Distance (km) Brightness Sun altitude
Exits shadow 03:46:40 14° 351° (N) 1,777 5.9 -26.2°
Drops below altitude 10° 03:48:24 10° 14° (NNE) 1,984 6.5 -25.9°
Sets 03:51:42 0° 41° (NE) 2,868 7.8 -25.4°
